Location: Kalberh�ni
(46.4610°N, 7.2453°E)
Time: 02:42:59
(UTC+00:00)

SAR-Lupe-2 - Pass Details

Date: 20 June 2021
Orbit: 482 x 484 km, 98.1° (Epoch: 20 July)

Event Time Altitude Azimuth Distance (km) Brightness Sun altitude
Rises 23:03:15 0° 17° (NNE) 2,561 8.4 -19.8°
Reaches altitude 10° 23:05:21 10° 21° (NNE) 1,675 7.2 -19.8°
Maximum altitude 23:08:54 57° 101° (ESE) 574 3.7 -19.9°
Enters shadow 23:09:06 56° 118° (ESE) 580 3.7 -19.9°
